Location: *
(41.7312°S, 98.7582°E)
Time: 04:26:04
(UTC+00:00)

Daily predictions for brighter satellites

Satellite Brightness Start Highest point End
(mag) Time Altitude Azimuth Time Altitude Azimuth Time Altitude Azimuth
STARLINK-1139 4.0 00:01:00 10° WSW 00:05:07 54° NW 00:09:12 10° NE
STARLINK-1174 4.1 00:06:00 10° WSW 00:10:05 49° NW 00:14:07 10° NNE
Cosmos 1934 Rocket 4.1 10:26:29 10° N 10:32:45 68° E 10:39:10 10° SSE
STARLINK-1276 3.8 10:30:10 10° WNW 10:34:21 75° SW 10:38:34 10° SE
STARLINK-24 4.5 10:32:01 10° NNW 10:35:42 34° NE 10:39:26 10° ESE
STARLINK-64 4.0 10:32:14 10° WNW 10:35:43 45° SSW 10:39:13 10° SE
Meteor PRIRODA 3.7 10:32:24 10° SSE 10:36:10 85° ENE 10:39:53 10° NNW
STARLINK-53 4.5 10:32:40 10° NNW 10:36:11 33° NE 10:39:44 10° ESE
Cosmos 2278 Rocket 3.1 10:31:32 10° S 10:36:18 27° SE 10:41:04 10° ENE
FENGYUN 3A 3.8 10:30:56 10° SSE 10:36:26 86° WSW 10:41:53 10° NNW
Cosmos 1844 Rocket 3.1 10:31:59 10° SSW 10:37:40 72° WNW 10:43:19 10° NNE
STARLINK-1305 3.9 10:35:09 10° WNW 10:39:20 69° SW 10:43:33 10° SE
METEOR-M 4.2 10:34:35 10° SSE 10:40:03 88° W 10:45:25 10° NNW
CZ-4B R/B 3.5 10:36:04 10° S 10:40:27 69° WSW 10:44:55 10° NNW
CZ-2C R/B 4.4 10:37:01 10° SSW 10:40:46 24° WSW 10:44:28 10° WNW
Cosmos 1340 2.9 10:37:08 10° NNW 10:40:56 75° WSW 10:44:47 10° S
STARLINK-52 4.1 10:40:06 10° SW 10:42:57 26° SSE 10:45:48 10° E
BREEZE-M DEB (TANK) 3.5 10:40:37 10° SW 10:44:02 54° SSE 10:55:26 10° ENE
Cosmos 1605 Rocket 4.2 10:38:04 10° NNE 10:44:04 53° E 10:50:05 10° SSE
MERIDIAN 1 3.9 10:42:53 10° WNW 10:44:15 19° SW 10:45:23 10° S
STARLINK-1262 4.0 10:40:10 10° WNW 10:44:19 63° SW 10:48:32 10° SE
STARLINK-1278 4.2 10:40:11 10° WNW 10:44:25 55° SSW 10:48:42 10° SE
SKYMED 2 3.7 10:40:23 10° NNE 10:44:46 86° WNW 10:49:13 10° SSW
Cosmos 2322 4.1 10:39:18 10° NNW 10:44:57 69° WSW 10:50:40 10° SSE
STARLINK-1280 4.3 10:42:03 10° WNW 10:46:17 54° SSW 10:50:32 10° SE
Cosmos 2360 Rocket 3.6 10:42:18 10° NW 10:47:34 37° WSW 10:52:52 10° S
Cosmos 2056 Rocket 4.4 10:43:26 10° S 10:48:02 28° ESE 10:52:32 10° ENE
STARLINK-1300 4.1 10:45:09 10° WNW 10:49:17 58° SSW 10:53:26 10° SE
Cosmos 1666 Rocket 4.3 10:46:26 10° NNE 10:50:17 31° E 10:54:11 10° SSE
FALCON 9 DEB 4.5 10:47:22 10° SW 10:50:21 25° SSE 10:52:54 12° ESE
STARLINK-50 4.1 10:48:06 10° NNW 10:51:58 44° NE 10:55:25 13° ESE
Cosmos 1633 Rocket 4.0 10:48:31 10° NNE 10:52:16 27° E 10:56:04 10° SSE
H-2A R/B 2.8 10:49:01 10° S 10:53:11 68° WSW 10:57:09 10° NNW
STARLINK-1295 4.2 10:50:12 10° WNW 10:54:19 54° SSW 10:58:15 11° SE
NOAA 6 4.3 10:50:05 10° SSE 10:55:08 49° E 11:00:06 10° N
STARLINK-1013 4.4 10:52:45 10° NNW 10:56:39 39° NE 10:59:51 14° ESE
Cosmos 1818 4.1 10:52:52 10° N 10:57:55 42° ENE 11:02:42 11° SE
CZ-2C R/B 4.4 10:58:14 12° SE 10:58:14 12° SE 10:59:56 10° SE
STARLINK-1287 4.3 10:55:11 10° WNW 10:59:17 50° SSW 11:03:01 12° SE
Cosmos 1782 3.9 10:56:04 10° SSW 10:59:59 49° W 11:03:52 10° NNW
Cosmos 1862 3.3 10:56:06 10° N 11:00:07 75° E 11:04:14 10° SSE
ALOS 3.4 10:55:55 10° S 11:00:28 46° WSW 11:04:57 10° NW
STARLINK-1009 4.2 10:57:38 10° NNW 11:01:36 42° NE 11:04:38 16° ESE
Iridium 96 3.9 11:01:19 10° SSW 11:02:59 43° W 11:04:38 10° NNW
MOS 1-B 4.3 10:59:18 10° SSE 11:05:13 79° ENE 11:11:02 10° NNW
SL-4 R/B 1.9 11:01:38 10° WSW 11:05:22 81° NW 11:09:22 10° NE
STARLINK-1015 4.1 11:02:33 10° NNW 11:06:34 47° NE 11:09:26 18° ESE
Cosmos 1680 Rocket 3.5 11:02:47 10° NNW 11:08:05 86° ENE 11:13:26 10° SSE
STARLINK-1302 4.5 11:05:16 10° WNW 11:09:17 44° SSW 11:12:35 15° SE
Cosmos 2219 Rocket 2.6 11:05:10 10° NW 11:10:49 66° WSW 11:16:33 10° SSE
ATLAS 2AS CENTAUR R/B 4.0 11:06:38 10° SSW 11:11:00 18° SSE 11:13:30 15° SE
Cosmos 923 Rocket 4.4 11:05:41 10° NNW 11:11:02 69° WSW 11:16:27 10° SSE
STARLINK-1016 4.0 11:07:27 10° NNW 11:11:31 52° NE 11:14:13 20° ESE
Cosmos 1805 Rocket 3.9 11:09:30 10° NNW 11:13:53 69° W 11:18:22 10° S
STARLINK-60 3.1 11:10:57 10° SW 11:14:13 74° NW 11:17:27 10° NE
STARLINK-81 3.5 11:11:23 10° NW 11:15:15 67° NE 11:17:38 22° ESE
Cosmos 1812 2.6 11:11:31 10° S 11:15:26 67° E 11:19:18 10° NNE
STARLINK-1367 4.5 11:13:03 10° SSW 11:15:28 20° SSE 11:15:56 19° SE
STARLINK-1366 4.5 11:13:24 10° SSW 11:15:53 20° SSE 11:16:22 19° SE
STARLINK-1008 3.8 11:12:23 10° NW 11:16:29 57° NE 11:19:00 22° ESE
STARLINK-54 3.4 11:12:40 10° NW 11:16:32 76° NE 11:18:55 22° ESE
CZ-4B DEB 4.3 11:10:58 10° SSE 11:16:32 84° WSW 11:22:04 10° NNW
STARLINK-77 3.4 11:14:08 10° NW 11:18:00 71° NE 11:20:16 23° ESE
Cosmos 1238 Rocket 3.2 11:16:11 10° NNE 11:20:39 48° E 11:24:03 12° SSE
Cosmos 2100 Rocket 4.3 11:15:19 10° NNE 11:21:04 41° E 11:26:50 10° SSE
STARLINK-1014 3.7 11:17:19 10° NW 11:21:28 63° NE 11:23:50 25° ESE
STARLINK-79 3.4 11:18:57 10° NW 11:22:49 78° NE 11:24:54 26° ESE
Helios 1A Rocket 3.8 11:21:53 24° ESE 11:23:03 27° E 11:26:32 10° NNE
Cosmos 1461 3.0 11:19:23 10° SSW 11:23:13 45° SE 11:26:03 16° ENE
STARLINK-78 3.4 11:20:25 10° NW 11:24:17 81° NE 11:26:17 27° ESE
PAYLOAD B 4.3 11:18:48 10° SSE 11:24:24 85° WSW 11:29:56 10° NNW
STARLINK-57 3.4 11:22:10 10° NW 11:26:01 88° NE 11:28:00 28° SE
Lacrosse 5 rocket 2.6 11:22:28 10° N 11:26:06 27° ENE 11:27:19 24° E
STARLINK-1010 3.7 11:21:52 10° NW 11:26:09 74° NE 11:28:27 27° ESE
Cosmos 1980 3.7 11:20:38 10° N 11:26:14 65° ENE 11:31:16 13° SSE
STARLINK-1025 3.6 11:22:17 10° NW 11:26:26 69° NE 11:28:35 27° ESE
STARLINK-49 3.3 11:23:45 10° NW 11:27:36 86° NE 11:29:30 29° SE
STARLINK-61 4.4 11:23:52 10° WNW 11:27:39 41° SSW 11:29:54 21° SSE
Envisat 3.3 11:22:48 10° SSE 11:27:47 47° E 11:32:41 10° N
STARLINK-27 3.3 11:25:09 10° NW 11:28:59 88° NE 11:30:48 30° SE
STARLINK-1329 4.5 11:26:38 10° SW 11:29:44 25° SSE 11:30:05 25° SSE
STARLINK-1379 4.5 11:26:45 10° SW 11:29:51 25° SSE 11:30:11 25° SSE
STARLINK-74 3.3 11:26:50 10° NW 11:30:41 90° SSW 11:32:26 31° SE
STARLINK-1017 3.6 11:27:11 10° NW 11:31:22 76° NE 11:33:20 31° ESE
Cosmos 1153 Rocket 4.4 11:25:20 10° N 11:31:29 80° E 11:37:43 10° S
STARLINK-39 3.3 11:28:22 10° NW 11:32:13 87° SW 11:33:54 32° SE
STARLINK-1365 4.4 11:30:29 10° SW 11:33:43 27° SSE 11:33:57 27° SSE
STARLINK-1362 4.4 11:30:29 10° SW 11:33:44 27° SSE 11:33:59 27° SSE
STARLINK-31 3.4 11:29:57 10° NW 11:33:48 84° SW 11:35:26 33° SE
STARLINK-69 3.4 11:31:42 10° WNW 11:35:31 75° SW 11:37:06 33° SE
STARLINK-1373 4.4 11:32:55 10° SW 11:36:09 27° SSE 11:36:14 27° SSE
STARLINK-1023 3.6 11:32:08 10° NW 11:36:19 83° NE 11:38:04 34° ESE
STARLINK-21 3.4 11:33:11 10° NW 11:37:01 78° SW 11:38:31 35° SE
Cosmos 2061 Rocket 4.5 11:32:59 10° NNE 11:38:36 36° E 11:43:27 14° SSE
STARLINK-1390 4.4 11:35:27 10° SW 11:38:38 28° SSE 11:38:38 28° SSE
STARLINK-45 3.5 11:35:01 10° WNW 11:38:50 69° SW 11:40:17 35° SE
Cosmos 1707 Rocket 3.8 11:34:32 10° SSW 11:39:00 71° W 11:43:23 10° N
Cosmos 1470 Rocket 3.8 11:35:06 10° NNE 11:39:26 49° E 11:42:02 23° SSE
STARLINK-70 3.5 11:36:40 10° WNW 11:40:29 69° SW 11:41:53 37° SE
STARLINK-1007 3.6 11:37:09 10° NW 11:41:21 90° NE 11:42:56 38° SE
NOSS 0 Rocket 4.0 11:35:16 10° NNW 11:41:32 82° WSW 11:47:27 12° SSE
STARLINK-76 3.5 11:38:07 10° WNW 11:41:56 71° SW 11:43:14 39° SE
COSMOS 2428 3.9 11:37:32 10° NW 11:42:57 41° WSW 11:48:26 10° SSE
STARLINK-29 2.9 11:39:47 10° SW 11:43:07 86° NW 11:44:00 46° NE
STARLINK-23 3.5 11:39:47 10° WNW 11:43:36 69° SW 11:44:50 40° SE
Meteor 1-27 Rocket 3.9 11:38:16 10° SSW 11:44:13 83° W 11:50:11 10° N
Cosmos 371 Rocket 4.4 11:40:41 10° S 11:43:48 26° SE 11:43:48 26° SE
STARLINK-32 3.6 11:41:22 10° WNW 11:45:10 67° SW 11:46:20 41° SSE
STARLINK-71 3.8 11:41:24 10° WNW 11:45:27 65° SW 11:46:54 37° SSE
STARLINK-1048 3.6 11:42:07 10° NW 11:46:19 84° SW 11:47:42 42° SE
ATLAS 5 CENTAUR R/B 2.6 11:39:32 10° NNW 11:46:45 75° ENE 11:51:06 24° SE
Cosmos 1624 Rocket 3.9 11:41:33 10° SSW 11:46:52 88° ESE 11:52:09 10° NNE
Cosmos 1441 Rocket 3.6 11:43:06 10° NNE 11:46:40 43° ENE 11:46:40 43° ENE
STARLINK-40 3.6 11:43:21 10° WNW 11:47:10 64° SW 11:48:17 42° SSE
Cosmos 2016 Rocket 4.3 11:42:14 10° NNE 11:48:05 42° E 11:53:36 12° SSE
STARLINK-44 3.7 11:44:38 10° WNW 11:48:25 63° SW 11:49:27 43° SSE
Cosmos 2173 Rocket 3.9 11:43:34 10° N 11:49:47 65° E 11:55:59 10° SSE
SL-24 R/B - RUBIN 2 3.9 11:44:49 10° NNW 11:49:50 55° ENE 11:51:05 42° ESE
H-2A R/B 3.6 11:46:34 10° S 11:50:22 51° WSW 11:54:10 10° NNW
STARLINK-37 3.8 11:46:48 10° WNW 11:50:36 57° SSW 11:51:36 42° SSE
STARLINK-1049 3.6 11:47:06 10° WNW 11:51:18 77° SW 11:52:28 46° SE
STARLINK-36 3.7 11:47:55 10° WNW 11:51:42 59° SSW 11:52:36 44° SSE
Cosmos 1862 Rocket 3.5 11:48:30 10° S 11:53:06 76° E 11:57:36 10° NNE
AQUARIUS 4.1 11:49:49 16° SSE 11:53:30 83° ENE 11:58:00 10° NNW
STARLINK-68 3.9 11:49:51 10° WNW 11:53:36 53° SSW 11:54:27 42° SSE
Cosmos 2237 Rocket 2.2 11:48:35 10° NNW 11:54:16 82° WSW 11:58:30 19° SSE
STARLINK-63 3.9 11:51:33 10° WNW 11:55:19 53° SSW 11:56:06 44° S
Cosmos 1943 Rocket 4.2 11:52:45 10° S 11:53:35 12° SSE 11:53:35 12° SSE
